Location: Earls Croome
(52.0667°N, 2.2000°W)
Time: 12:13:07
(UTC+00:00)

CZ-4B R/B - Pass Details

Date: 17 November 2019
Orbit: 498 x 646 km, 97.7° (Epoch: 16 December)

Event Time Altitude Azimuth Distance (km) Brightness Sun altitude
Rises 05:09:22 0° 12° (NNE) 2,958 7.7 -21.5°
Reaches altitude 10° 05:11:35 10° 11° (N) 2,053 6.8 -21.2°
Maximum altitude 05:16:04 74° 287° (WNW) 680 4.0 -20.5°
Drops below altitude 10° 05:20:32 10° 203° (SSW) 2,039 6.5 -19.8°
Sets 05:22:43 0° 202° (SSW) 2,936 7.4 -19.5°
